Time,TemperatureF,DewpointF,PressureIn,WindDirection,WindDirectionDegrees,WindSpeedMPH,WindSpeedGustMPH,Humidity,HourlyPrecipIn,Conditions,Clouds,dailyrainin,SoftwareType,DateUTC
2013-04-07 00:01:00,39.6,29.2,29.84,SSE,163,8.0,18.0,66,0.00,,,0.03,VWS V14.01,2013-04-07 06:01:00,
2013-04-07 00:06:00,39.6,29.2,29.84,South,187,5.0,12.0,66,0.00,,,0.00,VWS V14.01,2013-04-07 06:06:00,
2013-04-07 00:13:00,39.6,29.2,29.84,SSW,196,6.0,14.0,66,0.00,,,0.00,VWS V14.01,2013-04-07 06:13:00,
2013-04-07 00:18:00,39.3,28.9,29.84,SSW,194,7.0,14.0,66,0.00,,,0.00,VWS V14.01,2013-04-07 06:18:00,
2013-04-07 00:25:00,39.5,29.1,29.84,SSW,212,9.0,15.0,66,0.00,,,0.00,VWS V14.01,2013-04-07 06:25:00,
2013-04-07 00:47:00,40.1,28.9,29.84,South,179,9.0,17.0,64,0.00,,,0.00,VWS V14.01,2013-04-07 06:47:00,
2013-04-07 01:43:00,36.8,29.0,29.82,SSE,163,0.0,5.0,73,0.00,,,0.00,VWS V14.01,2013-04-07 07:43:00,
2013-04-07 01:48:00,36.8,28.0,29.82,SSE,163,1.0,5.0,70,0.00,,,0.00,VWS V14.01,2013-04-07 07:48:00,
2013-04-07 01:53:00,37.0,28.1,29.82,SSE,163,4.0,5.0,70,0.00,,,0.00,VWS V14.01,2013-04-07 07:53:00,
2013-04-07 01:58:00,37.1,28.9,29.82,SSE,163,0.0,2.0,72,0.00,,,0.00,VPLive 1.2.5.27,2013-04-07 07:58:00,
2013-04-07 02:05:00,36.3,29.1,29.81,SSE,163,0.0,2.0,75,0.00,,,0.00,VWS V14.01,2013-04-07 08:05:00,
2013-04-07 02:13:00,35.5,28.4,29.81,SSE,163,0.0,0.0,75,0.00,,,0.00,VPLive 1.2.5.27,2013-04-07 08:13:00,
2013-04-07 02:20:00,36.0,28.2,29.81,SSE,163,0.0,0.0,73,0.00,,,0.00,VPLive 1.2.5.27,2013-04-07 08:20:00,
2013-04-07 02:31:00,36.1,28.0,29.80,SSE,163,0.0,6.0,72,0.00,,,0.00,VWS V14.01,2013-04-07 08:31:00,
2013-04-07 02:38:00,36.6,28.1,29.80,SSE,163,2.0,6.0,71,0.00,,,0.00,VWS V14.01,2013-04-07 08:38:00,
2013-04-07 02:43:00,37.3,28.8,29.80,SSE,163,2.0,6.0,71,0.00,,,0.00,VWS V14.01,2013-04-07 08:43:00,
2013-04-07 02:49:00,37.5,27.9,29.80,SSE,163,2.0,6.0,68,0.00,,,0.00,VWS V14.01,2013-04-07 08:49:00,
2013-04-07 02:54:00,37.9,28.3,29.80,SSE,163,0.0,6.0,68,0.00,,,0.00,VWS V14.01,2013-04-07 08:54:00,
2013-04-07 02:59:00,38.2,28.2,29.80,SSE,163,2.0,6.0,67,0.00,,,0.00,VWS V14.01,2013-04-07 08:59:00,
2013-04-07 03:04:00,38.5,28.1,29.79,SSE,163,4.0,6.0,66,0.00,,,0.00,VWS V14.01,2013-04-07 09:04:00,
2013-04-07 03:10:00,38.9,28.1,29.79,SSE,163,4.0,6.0,65,0.00,,,0.00,VWS V14.01,2013-04-07 09:10:00,
2013-04-07 03:15:00,39.0,27.9,29.79,SSE,163,0.0,6.0,64,0.00,,,0.00,VWS V14.01,2013-04-07 09:15:00,
2013-04-07 03:20:00,38.9,28.5,29.78,SSE,163,1.0,6.0,66,0.00,,,0.00,VWS V14.01,2013-04-07 09:20:00,
2013-04-07 03:25:00,38.6,28.6,29.78,SSE,163,2.0,6.0,67,0.00,,,0.00,VWS V14.01,2013-04-07 09:25:00,
2013-04-07 03:38:00,37.8,27.8,29.78,South,190,6.0,8.0,67,0.00,,,0.00,VPLive 1.2.5.27,2013-04-07 09:38:00,
2013-04-07 03:43:00,38.1,27.8,29.77,SSW,196,6.0,8.0,66,0.00,,,0.00,VWS V14.01,2013-04-07 09:43:00,
2013-04-07 03:48:00,38.5,27.8,29.78,SSW,211,5.0,8.0,65,0.00,,,0.00,VWS V14.01,2013-04-07 09:48:00,
2013-04-07 03:53:00,38.3,27.6,29.77,SSW,209,7.0,9.0,65,0.00,,,0.00,VWS V14.01,2013-04-07 09:53:00,
2013-04-07 03:58:00,38.0,27.7,29.77,SSW,204,6.0,9.0,66,0.00,,,0.00,VWS V14.01,2013-04-07 09:58:00,
2013-04-07 04:03:00,38.0,27.7,29.77,SSW,210,5.0,8.0,66,0.00,,,0.00,VWS V14.01,2013-04-07 10:03:00,
2013-04-07 04:08:00,37.9,27.9,29.77,SSW,211,4.0,8.0,67,0.00,,,0.00,VWS V14.01,2013-04-07 10:08:00,
2013-04-07 04:18:00,37.1,28.2,29.77,South,190,0.0,8.0,70,0.00,,,0.00,VWS V14.01,2013-04-07 10:18:00,
2013-04-07 04:23:00,35.7,28.2,29.77,ENE,64,5.0,8.0,74,0.00,,,0.00,VWS V14.01,2013-04-07 10:23:00,
2013-04-07 04:29:00,34.1,28.0,29.77,ENE,70,4.0,10.0,78,0.00,,,0.00,VWS V14.01,2013-04-07 10:29:00,
2013-04-07 04:34:00,33.8,28.0,29.77,ENE,70,2.0,5.0,79,0.00,,,0.00,VPLive 1.2.5.27,2013-04-07 10:34:00,
2013-04-07 04:40:00,33.5,28.0,29.76,ENE,70,0.0,4.0,80,0.00,,,0.00,VPLive 1.2.5.27,2013-04-07 10:40:00,
2013-04-07 04:45:00,33.4,27.9,29.76,ENE,70,0.0,4.0,80,0.00,,,0.00,VWS V14.01,2013-04-07 10:45:00,
2013-04-07 04:50:00,33.6,27.8,29.76,ENE,70,0.0,4.0,79,0.00,,,0.00,VWS V14.01,2013-04-07 10:50:00,
2013-04-07 04:55:00,33.6,27.8,29.76,ENE,70,0.0,4.0,79,0.00,,,0.00,VWS V14.01,2013-04-07 10:55:00,
2013-04-07 05:00:00,33.5,27.7,29.75,ENE,70,2.0,4.0,79,0.00,,,0.00,VWS V14.01,2013-04-07 11:00:00,
2013-04-07 05:06:00,33.4,27.6,29.75,ENE,70,0.0,3.0,79,0.00,,,0.00,VWS V14.01,2013-04-07 11:06:00,
2013-04-07 05:15:00,33.5,27.7,29.75,ENE,70,3.0,3.0,79,0.00,,,0.00,VWS V14.01,2013-04-07 11:15:00,
2013-04-07 05:20:00,33.2,27.4,29.75,ENE,70,1.0,5.0,79,0.00,,,0.00,VWS V14.01,2013-04-07 11:20:00,
2013-04-07 05:25:00,32.9,27.4,29.74,ENE,70,2.0,5.0,80,0.00,,,0.00,VWS V14.01,2013-04-07 11:25:00,
2013-04-07 05:31:00,32.7,27.2,29.75,ENE,70,0.0,5.0,80,0.00,,,0.00,VWS V14.01,2013-04-07 11:31:00,
2013-04-07 05:36:00,32.6,27.4,29.74,ENE,70,0.0,1.0,81,0.00,,,0.00,VWS V14.01,2013-04-07 11:36:00,
2013-04-07 05:41:00,32.3,26.8,29.75,ENE,70,0.0,2.0,80,0.00,,,0.00,VWS V14.01,2013-04-07 11:41:00,
2013-04-07 05:46:00,32.2,26.7,29.74,ENE,70,0.0,2.0,80,0.00,,,0.00,VWS V14.01,2013-04-07 11:46:00,
2013-04-07 05:51:00,32.3,26.8,29.74,ENE,70,0.0,2.0,80,0.00,,,0.00,VWS V14.01,2013-04-07 11:51:00,
2013-04-07 05:56:00,32.3,26.8,29.74,ENE,70,0.0,2.0,80,0.00,,,0.00,VWS V14.01,2013-04-07 11:56:00,
2013-04-07 06:01:00,32.3,26.8,29.74,ENE,70,0.0,0.0,80,0.00,,,0.00,VPLive 1.2.5.27,2013-04-07 12:01:00,
2013-04-07 06:06:00,32.0,26.8,29.74,ENE,70,0.0,0.0,81,0.00,,,0.00,VPLive 1.2.5.27,2013-04-07 12:06:00,
2013-04-07 06:11:00,31.8,26.6,29.74,ENE,70,0.0,0.0,81,0.00,,,0.00,VWS V14.01,2013-04-07 12:11:00,
2013-04-07 06:17:00,31.8,26.9,29.73,ENE,70,0.0,0.0,82,0.00,,,0.00,VWS V14.01,2013-04-07 12:17:00,
2013-04-07 06:22:00,32.0,27.1,29.73,ENE,70,0.0,0.0,82,0.00,,,0.00,VWS V14.01,2013-04-07 12:22:00,
2013-04-07 06:27:00,32.0,27.1,29.73,ENE,70,0.0,2.0,82,0.00,,,0.00,VWS V14.01,2013-04-07 12:27:00,
2013-04-07 06:32:00,31.9,26.7,29.73,ENE,70,0.0,0.0,81,0.00,,,0.00,VWS V14.01,2013-04-07 12:32:00,
2013-04-07 06:37:00,31.5,26.6,29.73,ENE,70,3.0,3.0,82,0.00,,,0.00,VWS V14.01,2013-04-07 12:37:00,
2013-04-07 06:46:00,31.1,26.3,29.72,ENE,70,0.0,4.0,82,0.00,,,0.00,VWS V14.01,2013-04-07 12:46:00,
2013-04-07 06:51:00,30.6,26.3,29.72,ENE,70,0.0,6.0,84,0.00,,,0.00,VPLive 1.2.5.27,2013-04-07 12:51:00,
2013-04-07 06:56:00,30.7,26.5,29.72,ENE,70,0.0,6.0,84,0.00,,,0.00,VWS V14.01,2013-04-07 12:56:00,
2013-04-07 07:01:00,30.8,26.8,29.72,ENE,70,0.0,0.0,85,0.00,,,0.00,VPLive 1.2.5.27,2013-04-07 13:01:00,
2013-04-07 07:07:00,30.6,26.3,29.72,ENE,70,0.0,0.0,84,0.00,,,0.00,VPLive 1.2.5.27,2013-04-07 13:07:00,
2013-04-07 07:12:00,30.0,25.8,29.72,ENE,70,0.0,0.0,84,0.00,,,0.00,VPLive 1.2.5.27,2013-04-07 13:12:00,
2013-04-07 07:17:00,29.6,25.6,29.71,ENE,70,0.0,0.0,85,0.00,,,0.00,VWS V14.01,2013-04-07 13:17:00,
2013-04-07 07:22:00,29.5,25.8,29.71,ENE,70,2.0,2.0,86,0.00,,,0.00,VWS V14.01,2013-04-07 13:22:00,
2013-04-07 07:27:00,29.0,25.1,29.71,ENE,70,0.0,2.0,85,0.00,,,0.00,VWS V14.01,2013-04-07 13:27:00,
2013-04-07 07:33:00,28.8,25.4,29.71,ENE,70,2.0,3.0,87,0.00,,,0.00,VPLive 1.2.5.27,2013-04-07 13:33:00,
2013-04-07 07:38:00,29.2,25.8,29.70,ENE,70,2.0,3.0,87,0.00,,,0.00,VWS V14.01,2013-04-07 13:38:00,
2013-04-07 07:43:00,29.4,26.0,29.70,ENE,70,0.0,3.0,87,0.00,,,0.00,VWS V14.01,2013-04-07 13:43:00,
2013-04-07 07:48:00,29.4,26.0,29.70,ENE,70,0.0,3.0,87,0.00,,,0.00,VWS V14.01,2013-04-07 13:48:00,
2013-04-07 07:53:00,29.1,25.7,29.71,ENE,70,1.0,3.0,87,0.00,,,0.00,VWS V14.01,2013-04-07 13:53:00,
2013-04-07 07:58:00,28.9,25.5,29.71,ENE,70,0.0,3.0,87,0.00,,,0.00,VWS V14.01,2013-04-07 13:58:00,
2013-04-07 08:03:00,29.2,26.1,29.70,ENE,70,0.0,0.0,88,0.00,,,0.00,VWS V14.01,2013-04-07 14:03:00,
2013-04-07 08:08:00,29.6,26.5,29.71,ENE,70,0.0,0.0,88,0.00,,,0.00,VWS V14.01,2013-04-07 14:08:00,
2013-04-07 08:13:00,30.0,26.9,29.71,ENE,70,0.0,0.0,88,0.00,,,0.00,VWS V14.01,2013-04-07 14:13:00,
2013-04-07 08:18:00,30.4,27.3,29.71,ENE,70,0.0,0.0,88,0.00,,,0.00,VWS V14.01,2013-04-07 14:18:00,
2013-04-07 08:23:00,30.9,27.8,29.71,ENE,70,0.0,0.0,88,0.00,,,0.00,VWS V14.01,2013-04-07 14:23:00,
2013-04-07 08:28:00,31.2,27.8,29.70,ENE,70,0.0,0.0,87,0.00,,,0.00,VWS V14.01,2013-04-07 14:28:00,
2013-04-07 08:33:00,31.5,28.1,29.70,ENE,70,0.0,2.0,87,0.00,,,0.00,VWS V14.01,2013-04-07 14:33:00,
2013-04-07 08:45:00,32.1,28.7,29.70,ENE,70,0.0,3.0,87,0.00,,,0.00,VWS V14.01,2013-04-07 14:45:00,
2013-04-07 08:50:00,32.3,29.1,29.70,ENE,70,0.0,3.0,88,0.00,,,0.00,VWS V14.01,2013-04-07 14:50:00,
2013-04-07 08:58:00,32.7,29.5,29.70,ENE,70,0.0,0.0,88,0.00,,,0.00,VPLive 1.2.5.27,2013-04-07 14:58:00,
2013-04-07 09:03:00,33.0,29.6,29.70,ENE,70,0.0,2.0,87,0.00,,,0.00,VPLive 1.2.5.27,2013-04-07 15:03:00,
2013-04-07 09:08:00,33.3,29.6,29.70,ENE,70,0.0,0.0,86,0.00,,,0.00,VPLive 1.2.5.27,2013-04-07 15:08:00,
2013-04-07 09:13:00,33.7,30.0,29.69,West,270,0.0,3.0,86,0.00,,,0.00,VPLive 1.2.5.27,2013-04-07 15:13:00,
2013-04-07 09:19:00,33.8,29.8,29.70,West,270,1.0,3.0,85,0.00,,,0.00,VWS V14.01,2013-04-07 15:19:00,
2013-04-07 09:24:00,34.1,29.8,29.69,West,270,0.0,3.0,84,0.00,,,0.00,VWS V14.01,2013-04-07 15:24:00,
2013-04-07 09:29:00,34.4,30.1,29.69,West,270,0.0,3.0,84,0.00,,,0.00,VWS V14.01,2013-04-07 15:29:00,
2013-04-07 09:34:00,34.4,29.8,29.69,West,270,0.0,0.0,83,0.00,,,0.00,VPLive 1.2.5.27,2013-04-07 15:34:00,
2013-04-07 09:40:00,34.9,30.0,29.69,West,270,0.0,0.0,82,0.00,,,0.00,VPLive 1.2.5.27,2013-04-07 15:40:00,
2013-04-07 09:50:00,35.9,30.6,29.69,West,270,0.0,3.0,81,0.00,,,0.00,VPLive 1.2.5.27,2013-04-07 15:50:00,
2013-04-07 10:03:00,36.6,31.6,29.68,West,280,1.0,2.0,82,0.00,,,0.00,VWS V14.01,2013-04-07 16:03:00,
2013-04-07 10:11:00,37.2,31.9,29.68,West,281,2.0,4.0,81,0.00,,,0.00,VWS V14.01,2013-04-07 16:11:00,
2013-04-07 10:22:00,37.7,32.4,29.68,West,281,1.0,4.0,81,0.00,,,0.00,VWS V14.01,2013-04-07 16:22:00,
2013-04-07 13:25:00,42.6,34.9,29.65,ESE,113,1.0,9.0,74,0.00,,,0.00,VWS V14.01,2013-04-07 19:25:00,
2013-04-07 13:30:00,42.7,36.0,29.65,ESE,114,4.0,5.0,77,0.00,,,0.00,VPLive 1.2.5.27,2013-04-07 19:30:00,
2013-04-07 13:35:00,42.3,35.0,29.65,SSW,196,6.0,6.0,75,0.00,,,0.00,VWS V14.01,2013-04-07 19:35:00,
2013-04-07 13:40:00,41.9,35.2,29.66,South,189,0.0,6.0,77,0.00,,,0.00,VWS V14.01,2013-04-07 19:40:00,
2013-04-07 13:45:00,41.8,35.5,29.66,South,189,2.0,6.0,78,0.01,,,0.01,VWS V14.01,2013-04-07 19:45:00,
2013-04-07 13:51:00,41.5,35.5,29.66,South,178,2.0,7.0,79,0.01,,,0.01,VPLive 1.2.5.27,2013-04-07 19:51:00,
2013-04-07 13:57:00,41.2,35.5,29.66,South,174,4.0,7.0,80,0.01,,,0.01,VPLive 1.2.5.27,2013-04-07 19:57:00,
2013-04-07 14:02:00,40.9,35.8,29.66,South,174,0.0,0.0,82,0.01,,,0.01,VWS V14.01,2013-04-07 20:02:00,
2013-04-07 14:09:00,40.9,36.5,29.66,SW,233,4.0,6.0,84,0.01,,,0.01,VWS V14.01,2013-04-07 20:09:00,
2013-04-07 14:14:00,40.7,36.0,29.66,SW,233,0.0,6.0,83,0.01,,,0.01,VWS V14.01,2013-04-07 20:14:00,
2013-04-07 14:19:00,40.7,36.0,29.66,SW,233,3.0,6.0,83,0.01,,,0.01,VWS V14.01,2013-04-07 20:19:00,
2013-04-07 14:24:00,40.6,35.8,29.66,SW,233,2.0,6.0,83,0.01,,,0.01,VWS V14.01,2013-04-07 20:24:00,
2013-04-07 14:29:00,40.6,36.2,29.66,SW,234,4.0,6.0,84,0.01,,,0.01,VWS V14.01,2013-04-07 20:29:00,
2013-04-07 14:35:00,40.5,36.3,29.66,SW,234,2.0,5.0,85,0.01,,,0.01,VPLive 1.2.5.27,2013-04-07 20:35:00,
2013-04-07 14:40:00,40.5,36.7,29.66,SW,234,3.0,4.0,86,0.02,,,0.02,VWS V14.01,2013-04-07 20:40:00,
2013-04-07 14:45:00,40.4,36.3,29.66,SW,234,2.0,4.0,85,0.02,,,0.02,VWS V14.01,2013-04-07 20:45:00,
2013-04-07 14:50:00,40.4,36.5,29.67,SW,234,2.0,4.0,86,0.02,,,0.02,VWS V14.01,2013-04-07 20:50:00,
2013-04-07 14:55:00,40.5,36.7,29.66,SW,234,0.0,4.0,86,0.03,,,0.03,VWS V14.01,2013-04-07 20:55:00,
2013-04-07 15:00:00,40.9,37.3,29.66,SW,234,0.0,4.0,87,0.03,,,0.03,VWS V14.01,2013-04-07 21:00:00,
2013-04-07 15:05:00,40.9,37.0,29.66,SW,234,0.0,3.0,86,0.02,,,0.03,VWS V14.01,2013-04-07 21:05:00,
2013-04-07 15:10:00,40.8,36.7,29.66,SW,234,0.0,3.0,85,0.02,,,0.03,VWS V14.01,2013-04-07 21:10:00,
2013-04-07 15:15:00,40.7,36.5,29.67,SW,234,0.0,3.0,85,0.02,,,0.03,VWS V14.01,2013-04-07 21:15:00,
2013-04-07 15:21:00,40.8,37.2,29.66,East,84,0.0,6.0,87,0.02,,,0.03,VWS V14.01,2013-04-07 21:21:00,
2013-04-07 15:26:00,40.9,37.3,29.66,ENE,58,1.0,6.0,87,0.02,,,0.03,VWS V14.01,2013-04-07 21:26:00,
2013-04-07 15:33:00,41.0,37.1,29.66,ESE,111,4.0,8.0,86,0.02,,,0.03,VWS V14.01,2013-04-07 21:33:00,
2013-04-07 15:38:00,41.3,37.4,29.66,East,82,0.0,8.0,86,0.02,,,0.03,VWS V14.01,2013-04-07 21:38:00,
2013-04-07 15:43:00,41.6,37.7,29.66,ENE,63,4.0,11.0,86,0.02,,,0.03,VWS V14.01,2013-04-07 21:43:00,
2013-04-07 15:49:00,41.8,37.9,29.66,ENE,78,5.0,11.0,86,0.02,,,0.03,VWS V14.01,2013-04-07 21:49:00,
2013-04-07 15:55:00,41.7,37.5,29.66,ESE,122,6.0,12.0,85,0.00,,,0.03,VPLive 1.2.5.27,2013-04-07 21:55:00,
2013-04-07 16:00:00,41.5,37.3,29.66,ESE,110,6.0,12.0,85,0.02,,,0.03,VWS V14.01,2013-04-07 22:00:00,
2013-04-07 16:05:00,41.9,38.3,29.66,SE,126,5.0,8.0,87,0.00,,,0.03,VWS V14.01,2013-04-07 22:05:00,
2013-04-07 16:10:00,42.3,38.4,29.66,East,83,0.0,8.0,86,0.00,,,0.03,VWS V14.01,2013-04-07 22:10:00,
2013-04-07 16:15:00,42.5,38.3,29.66,ENE,70,5.0,7.0,85,0.00,,,0.03,VPLive 1.2.5.27,2013-04-07 22:15:00,
2013-04-07 16:20:00,42.4,38.5,29.66,NE,52,6.0,8.0,86,0.00,,,0.03,VWS V14.01,2013-04-07 22:20:00,
2013-04-07 16:25:00,42.3,38.1,29.66,ENE,63,4.0,11.0,85,0.00,,,0.03,VWS V14.01,2013-04-07 22:25:00,
2013-04-07 16:30:00,42.1,37.6,29.66,ENE,73,4.0,11.0,84,0.00,,,0.03,VWS V14.01,2013-04-07 22:30:00,
2013-04-07 16:35:00,42.2,38.0,29.66,NE,53,7.0,8.0,85,0.00,,,0.03,VWS V14.01,2013-04-07 22:35:00,
2013-04-07 16:40:00,42.1,38.2,29.66,ENE,74,8.0,12.0,86,0.00,,,0.03,VWS V14.01,2013-04-07 22:40:00,
2013-04-07 16:45:00,41.6,37.4,29.67,ENE,65,7.0,12.0,85,0.00,,,0.03,VWS V14.01,2013-04-07 22:45:00,
2013-04-07 16:51:00,41.3,37.4,29.67,ENE,63,5.0,12.0,86,0.00,,,0.03,VWS V14.01,2013-04-07 22:51:00,
2013-04-07 16:56:00,41.0,37.1,29.67,ENE,67,6.0,12.0,86,0.00,,,0.03,VWS V14.01,2013-04-07 22:56:00,
2013-04-07 17:01:00,40.8,36.9,29.67,ENE,74,5.0,12.0,86,0.00,,,0.03,VWS V14.01,2013-04-07 23:01:00,
2013-04-07 17:06:00,40.5,36.7,29.68,ENE,71,3.0,10.0,86,0.00,,,0.03,VWS V14.01,2013-04-07 23:06:00,
2013-04-07 17:11:00,40.3,36.7,29.68,ENE,66,5.0,7.0,87,0.01,,,0.04,VPLive 1.2.5.27,2013-04-07 23:11:00,
2013-04-07 17:16:00,40.3,37.0,29.68,ENE,61,3.0,10.0,88,0.02,,,0.05,VWS V14.01,2013-04-07 23:16:00,
2013-04-07 17:21:00,40.0,37.0,29.69,NE,39,8.0,9.0,89,0.02,,,0.05,VPLive 1.2.5.27,2013-04-07 23:21:00,
2013-04-07 17:26:00,39.7,37.0,29.69,NE,41,3.0,10.0,90,0.03,,,0.06,VWS V14.01,2013-04-07 23:26:00,
2013-04-07 17:32:00,39.5,36.8,29.69,NE,41,4.0,10.0,90,0.04,,,0.07,VWS V14.01,2013-04-07 23:32:00,
2013-04-07 17:37:00,39.4,36.7,29.70,NE,41,3.0,7.0,90,0.06,,,0.09,VPLive 1.2.5.27,2013-04-07 23:37:00,
2013-04-07 17:42:00,39.3,36.6,29.70,NE,48,3.0,6.0,90,0.07,,,0.10,VWS V14.01,2013-04-07 23:42:00,
2013-04-07 17:47:00,39.3,36.6,29.69,ENE,65,6.0,7.0,90,0.08,,,0.11,VWS V14.01,2013-04-07 23:47:00,
2013-04-07 17:52:00,39.3,36.3,29.70,NE,56,3.0,7.0,89,0.10,,,0.13,VWS V14.01,2013-04-07 23:52:00,
2013-04-07 17:57:00,39.4,36.4,29.70,ENE,57,4.0,7.0,89,0.10,,,0.13,VWS V14.01,2013-04-07 23:57:00,
2013-04-07 18:02:00,39.4,36.4,29.70,ENE,71,2.0,3.0,89,0.10,,,0.13,VWS V14.01,2013-04-08 00:02:00,
2013-04-07 18:07:00,39.3,36.3,29.70,NE,55,2.0,8.0,89,0.10,,,0.13,VWS V14.01,2013-04-08 00:07:00,
2013-04-07 18:12:00,39.2,36.2,29.71,NE,40,4.0,8.0,89,0.10,,,0.13,VWS V14.01,2013-04-08 00:12:00,
2013-04-07 18:17:00,38.9,36.2,29.72,NNE,26,6.0,9.0,90,0.10,,,0.13,VWS V14.01,2013-04-08 00:17:00,
2013-04-07 18:22:00,38.6,35.9,29.73,NNW,346,4.0,11.0,90,0.10,,,0.13,VWS V14.01,2013-04-08 00:22:00,
2013-04-07 18:27:00,37.7,35.0,29.73,NW,306,9.0,15.0,90,0.12,,,0.15,VWS V14.01,2013-04-08 00:27:00,
2013-04-07 18:32:00,37.2,34.3,29.74,NW,311,5.0,6.0,89,0.09,,,0.16,VWS V14.01,2013-04-08 00:32:00,
2013-04-07 18:37:00,37.0,34.1,29.74,NW,308,2.0,6.0,89,0.10,,,0.17,VWS V14.01,2013-04-08 00:37:00,
2013-04-07 18:42:00,36.8,34.2,29.74,NW,308,3.0,6.0,90,0.12,,,0.19,VWS V14.01,2013-04-08 00:42:00,
2013-04-07 18:47:00,36.3,33.4,29.73,NE,46,8.0,8.0,89,0.14,,,0.21,VWS V14.01,2013-04-08 00:47:00,
2013-04-07 18:53:00,35.9,33.3,29.73,ENE,72,5.0,8.0,90,0.16,,,0.23,VWS V14.01,2013-04-08 00:53:00,
2013-04-07 18:58:00,35.6,33.0,29.73,ENE,61,5.0,11.0,90,0.16,,,0.23,VWS V14.01,2013-04-08 00:58:00,
2013-04-07 19:03:00,35.5,32.9,29.74,ENE,70,13.0,13.0,90,0.10,,,0.23,VWS V14.01,2013-04-08 01:03:00,
2013-04-07 19:08:00,35.3,32.7,29.74,ENE,60,6.0,13.0,90,0.10,,,0.23,VWS V14.01,2013-04-08 01:08:00,
2013-04-07 19:13:00,35.2,32.6,29.74,ENE,61,8.0,13.0,90,0.10,,,0.23,VWS V14.01,2013-04-08 01:13:00,
2013-04-07 19:18:00,34.8,32.2,29.74,ENE,63,7.0,13.0,90,0.10,,,0.23,VWS V14.01,2013-04-08 01:18:00,
2013-04-07 19:23:00,34.4,31.8,29.75,NE,38,5.0,14.0,90,0.10,,,0.23,VWS V14.01,2013-04-08 01:23:00,
2013-04-07 19:28:00,33.9,31.3,29.75,NE,51,7.0,14.0,90,0.10,,,0.23,VWS V14.01,2013-04-08 01:28:00,
2013-04-07 19:33:00,33.8,31.2,29.76,NE,56,4.0,5.0,90,0.07,,,0.23,VWS V14.01,2013-04-08 01:33:00,
2013-04-07 19:38:00,33.6,31.0,29.76,ENE,65,5.0,8.0,90,0.07,,,0.23,VWS V14.01,2013-04-08 01:38:00,
2013-04-07 19:43:00,33.5,30.9,29.76,NE,44,3.0,8.0,90,0.07,,,0.23,VWS V14.01,2013-04-08 01:43:00,
2013-04-07 19:48:00,33.5,30.9,29.77,NE,48,6.0,11.0,90,0.07,,,0.23,VWS V14.01,2013-04-08 01:48:00,
2013-04-07 19:53:00,33.4,30.8,29.77,NE,43,9.0,12.0,90,0.07,,,0.23,VWS V14.01,2013-04-08 01:53:00,
2013-04-07 19:58:00,33.2,30.6,29.77,NE,46,3.0,13.0,90,0.07,,,0.23,VWS V14.01,2013-04-08 01:58:00,
2013-04-07 20:03:00,33.1,30.2,29.78,NE,52,7.0,14.0,89,0.00,,,0.23,VWS V14.01,2013-04-08 02:03:00,
2013-04-07 20:08:00,33.1,30.2,29.78,NE,35,4.0,14.0,89,0.00,,,0.23,VWS V14.01,2013-04-08 02:08:00,
2013-04-07 20:13:00,33.1,30.2,29.78,NE,48,7.0,14.0,89,0.00,,,0.23,VWS V14.01,2013-04-08 02:13:00,
2013-04-07 20:18:00,32.9,30.0,29.78,NE,49,7.0,14.0,89,0.00,,,0.23,VWS V14.01,2013-04-08 02:18:00,
2013-04-07 20:23:00,33.0,30.1,29.79,NE,45,3.0,14.0,89,0.00,,,0.23,VWS V14.01,2013-04-08 02:23:00,
2013-04-07 20:28:00,33.0,30.1,29.79,NE,38,7.0,14.0,89,0.00,,,0.23,VWS V14.01,2013-04-08 02:28:00,
2013-04-07 20:33:00,32.9,30.0,29.79,NNE,22,8.0,12.0,89,0.00,,,0.23,VWS V14.01,2013-04-08 02:33:00,
2013-04-07 20:38:00,32.8,29.9,29.79,NE,40,5.0,12.0,89,0.00,,,0.23,VWS V14.01,2013-04-08 02:38:00,
2013-04-07 20:43:00,32.7,29.8,29.79,NE,54,5.0,12.0,89,0.00,,,0.23,VWS V14.01,2013-04-08 02:43:00,
2013-04-07 20:48:00,32.7,29.8,29.80,NE,53,1.0,12.0,89,0.00,,,0.23,VWS V14.01,2013-04-08 02:48:00,
2013-04-07 20:53:00,32.7,29.8,29.80,NE,53,4.0,12.0,89,0.00,,,0.23,VWS V14.01,2013-04-08 02:53:00,
2013-04-07 20:58:00,32.6,29.7,29.81,NE,53,4.0,5.0,89,0.00,,,0.23,VPLive 1.2.5.27,2013-04-08 02:58:00,
2013-04-07 21:03:00,32.6,29.7,29.81,NE,53,0.0,4.0,89,0.00,,,0.23,VPLive 1.2.5.27,2013-04-08 03:03:00,
2013-04-07 21:09:00,32.7,29.8,29.81,NE,53,2.0,3.0,89,0.00,,,0.23,VWS V14.01,2013-04-08 03:09:00,
2013-04-07 21:14:00,32.6,29.7,29.81,NE,53,1.0,3.0,89,0.00,,,0.23,VWS V14.01,2013-04-08 03:14:00,
2013-04-07 21:19:00,32.7,29.8,29.82,NE,53,1.0,5.0,89,0.00,,,0.23,VPLive 1.2.5.27,2013-04-08 03:19:00,
2013-04-07 21:24:00,32.7,29.8,29.82,NE,53,0.0,5.0,89,0.00,,,0.23,VWS V14.01,2013-04-08 03:24:00,
2013-04-07 21:29:00,32.6,29.7,29.82,NE,53,0.0,5.0,89,0.00,,,0.23,VWS V14.01,2013-04-08 03:29:00,
2013-04-07 21:34:00,32.4,29.5,29.82,NE,53,2.0,4.0,89,0.00,,,0.23,VWS V14.01,2013-04-08 03:34:00,
2013-04-07 21:39:00,32.4,29.5,29.83,NE,53,4.0,4.0,89,0.00,,,0.23,VPLive 1.2.5.27,2013-04-08 03:39:00,
2013-04-07 21:45:00,32.3,29.7,29.83,NE,53,5.0,5.0,90,0.00,,,0.23,VWS V14.01,2013-04-08 03:45:00,
2013-04-07 21:50:00,32.2,29.6,29.83,NE,45,7.0,8.0,90,0.00,,,0.23,VWS V14.01,2013-04-08 03:50:00,
2013-04-07 21:55:00,32.1,29.5,29.83,NE,36,3.0,8.0,90,0.00,,,0.23,VWS V14.01,2013-04-08 03:55:00,
2013-04-07 22:00:00,32.0,29.4,29.84,NE,36,4.0,9.0,90,0.00,,,0.23,VPLive 1.2.5.27,2013-04-08 04:00:00,
2013-04-07 22:05:00,32.0,29.4,29.84,NNE,28,6.0,8.0,90,0.00,,,0.23,VWS V14.01,2013-04-08 04:05:00,
2013-04-07 22:10:00,31.9,29.3,29.84,NNE,32,3.0,8.0,90,0.00,,,0.23,VWS V14.01,2013-04-08 04:10:00,
2013-04-07 22:15:00,31.8,29.2,29.84,NNE,29,5.0,9.0,90,0.00,,,0.23,VPLive 1.2.5.27,2013-04-08 04:15:00,
2013-04-07 22:20:00,31.7,29.1,29.84,NNE,23,2.0,9.0,90,0.00,,,0.23,VWS V14.01,2013-04-08 04:20:00,
2013-04-07 22:25:00,31.6,29.0,29.84,East,93,1.0,9.0,90,0.00,,,0.23,VWS V14.01,2013-04-08 04:25:00,
2013-04-07 22:31:00,31.5,28.9,29.85,ENE,78,0.0,9.0,90,0.00,,,0.23,VWS V14.01,2013-04-08 04:31:00,
2013-04-07 22:36:00,31.4,28.8,29.85,NE,41,0.0,8.0,90,0.00,,,0.23,VWS V14.01,2013-04-08 04:36:00,
2013-04-07 22:41:00,31.2,28.6,29.85,NE,42,4.0,8.0,90,0.00,,,0.23,VWS V14.01,2013-04-08 04:41:00,
2013-04-07 22:45:00,31.0,28.4,29.86,NE,42,4.0,10.0,90,0.00,,,0.23,VWS V14.01,2013-04-08 04:45:00,
2013-04-07 22:50:00,30.9,28.3,29.86,NE,42,2.0,10.0,90,0.00,,,0.23,VWS V14.01,2013-04-08 04:50:00,
2013-04-07 22:55:00,30.8,28.2,29.86,NE,42,8.0,14.0,90,0.00,,,0.23,VWS V14.01,2013-04-08 04:55:00,
2013-04-07 23:00:00,30.6,28.0,29.86,NE,42,6.0,14.0,90,0.00,,,0.23,VWS V14.01,2013-04-08 05:00:00,
2013-04-07 23:05:00,30.6,28.0,29.87,NE,42,5.0,9.0,90,0.00,,,0.23,VWS V14.01,2013-04-08 05:05:00,
2013-04-07 23:10:00,30.5,27.9,29.87,NE,42,3.0,10.0,90,0.00,,,0.23,VWS V14.01,2013-04-08 05:10:00,
2013-04-07 23:15:00,30.4,27.5,29.87,NE,42,10.0,13.0,89,0.00,,,0.23,VWS V14.01,2013-04-08 05:15:00,
2013-04-07 23:20:00,30.2,27.4,29.87,NE,42,8.0,13.0,89,0.00,,,0.23,VWS V14.01,2013-04-08 05:20:00,
2013-04-07 23:25:00,30.1,27.3,29.87,NE,42,7.0,16.0,89,0.00,,,0.23,VWS V14.01,2013-04-08 05:25:00,
2013-04-07 23:30:00,29.9,27.1,29.88,NE,42,6.0,16.0,89,0.00,,,0.23,VWS V14.01,2013-04-08 05:30:00,
2013-04-07 23:36:00,29.8,27.0,29.88,NE,42,10.0,14.0,89,0.00,,,0.23,VWS V14.01,2013-04-08 05:36:00,
2013-04-07 23:41:00,29.7,26.9,29.88,NE,42,9.0,14.0,89,0.00,,,0.23,VWS V14.01,2013-04-08 05:41:00,
2013-04-07 23:46:00,29.6,26.8,29.89,NE,42,4.0,14.0,89,0.00,,,0.23,VWS V14.01,2013-04-08 05:46:00,
2013-04-07 23:51:00,29.4,26.6,29.89,NE,42,7.0,11.0,89,0.00,,,0.23,VPLive 1.2.5.27,2013-04-08 05:51:00,
2013-04-07 23:56:00,29.3,26.5,29.89,NE,42,4.0,14.0,89,0.00,,,0.23,VWS V14.01,2013-04-08 05:56:00,